This is the latest recevied weather packets stored in our database for station/object KB4MOX. If no packets are shown the sender has not sent any weather packets the latest 10 day(s).
| Time | Temp. | Humidity | Pressure | Rain* | Wind** | Luminosity | Snow |
|---|---|---|---|---|---|---|---|
| 1778081171 | 23.33° C | 70% | 1016.9 hPa | 0 mm | - | 200 W/m² | - |
| 1778080869 | 23.33° C | 68% | 1017 hPa | 0 mm | - | 179 W/m² | - |
| 1778080567 | 23.33° C | 71% | 1016.9 hPa | 0 mm | - | 259 W/m² | - |
| 1778080263 | 23.33° C | 72% | 1016.9 hPa | 0 mm | - | 348 W/m² | - |
| 1778079960 | 22.78° C | 72% | 1016.8 hPa | 0 mm | - | 271 W/m² | - |
| 1778079657 | 22.22° C | 75% | 1016.7 hPa | 0 mm | - | 269 W/m² | - |
| 1778079354 | 21.67° C | 75% | 1016.6 hPa | 0 mm | - | 201 W/m² | - |
| 1778079051 | 21.67° C | 76% | 1016.5 hPa | 0 mm | - | 214 W/m² | - |
| 1778078748 | 21.67° C | 75% | 1016.5 hPa | 0 mm | - | 227 W/m² | - |
| 1778078445 | 21.67° C | 76% | 1016.4 hPa | 0 mm | - | 249 W/m² | - |
| 1778078142 | 21.11° C | 77% | 1016.4 hPa | 0 mm | - | 218 W/m² | - |
| 1778077841 | 21.11° C | 77% | 1016.3 hPa | 0 mm | - | 256 W/m² | - |
| 1778077538 | 21.11° C | 77% | 1016.4 hPa | 0 mm | - | 233 W/m² | - |
| 1778077236 | 20.56° C | 78% | 1016.4 hPa | 0 mm | - | 231 W/m² | - |
| 1778076934 | 20.56° C | 78% | 1016.4 hPa | 0 mm | - | 230 W/m² | - |
| 1778076632 | 20.56° C | 78% | 1016.2 hPa | 0 mm | - | 175 W/m² | - |
| 1778076329 | 20.56° C | 79% | 1016.2 hPa | 0 mm | - | 203 W/m² | - |
| 1778076026 | 20.56° C | 78% | 1016.2 hPa | 0 mm | - | 193 W/m² | - |
| 1778075723 | 20° C | 80% | 1016.3 hPa | 0 mm | - | 181 W/m² | - |
| 1778075419 | 19.44° C | 80% | 1016.2 hPa | 0 mm | - | 163 W/m² | - |
| 1778075115 | 19.44° C | 81% | 1016.3 hPa | 0 mm | - | 144 W/m² | - |
| 1778074812 | 19.44° C | 81% | 1016.3 hPa | 0 mm | - | 134 W/m² | - |
| 1778074509 | 19.44° C | 82% | 1016.3 hPa | 0 mm | - | 118 W/m² | - |
| 1778074206 | 18.89° C | 83% | 1016.2 hPa | 0 mm | - | 100 W/m² | - |
| 1778073903 | 18.89° C | 82% | 1016.3 hPa | 0 mm | - | 84 W/m² | - |
* Rain latest hour (hover to see other rain measurements)
** Current wind speed in m/s (hover to see current wind gust speed)